Meteor

operational
NORAD ID: 7209 Int'l Des: 1974-011 Owner: GUKOSR/GMS Country: SU
LEOCIRCULARPOLAR

About Meteor

Description loading...

Live Position

Loading 3D Globe...

Upcoming Passes

Altitude History

Altitude vs Time

uPlot chart will show altitude changes over time

Two-Line Element Set

1 7209U 74011A 26102.50548455 .00000155 00000-0 73764-4 0 9990
2 7209 81.2234 94.2093 0037726 228.0708 131.7247 14.14537519685957
Epoch: Apr 12, 2026 • Age: 8 hours

Current Status

Altitude 857.4 km
Velocity 7.43 km/s
Sub-Earth Point -66.83°S, 72.65°W
Type other

Large Constellations

Loading constellations...